Location: Umburanas
(4.5000°S, 37.9667°W)
Time: 15:52:39
(UTC+00:00)

FengYun 1-2 T - Pass Details

Date: 19 November 2019
Orbit: 846 x 881 km, 98.7° (Epoch: 10 December)

Event Time Altitude Azimuth Distance (km) Brightness Sun altitude
Rises 21:22:57 0° 170° (S) 3,463 7.5 -13.8°
Reaches altitude 10° 21:25:21 10° 172° (S) 2,518 6.8 -14.4°
Maximum altitude 21:30:57 78° 257° (WSW) 885 4.4 -15.7°
Drops below altitude 10° 21:36:28 10° 343° (NNW) 2,480 6.6 -17.0°
Sets 21:38:49 0° 345° (NNW) 3,408 7.3 -17.5°
